| time (UTC) | temp C | wind direction | speed KPH | gust KPH | rain 1hr cm | rain 24hr cm | rain mn cm | humidity % | barometer mb |
| 20260506143817 | 8 | 313 | 8.0 | 12.9 | 0.00 | 2.31 | 0.43 | 84 | 1010.3 |
| 20260506143347 | 8 | 337 | 6.4 | 14.5 | 0.00 | 2.31 | 0.43 | 84 | 1010.0 |
| 20260506142826 | 8 | 322 | 6.4 | 14.5 | 0.00 | 2.31 | 0.43 | 84 | 1010.1 |
| 20260506142335 | 9 | 321 | 6.4 | 16.1 | 0.00 | 2.31 | 0.43 | 84 | 1010.2 |
| 20260506141818 | 9 | 336 | 8.0 | 16.1 | 0.00 | 2.31 | 0.43 | 82 | 1010.1 |
| 20260506141321 | 9 | 331 | 6.4 | 19.3 | 0.00 | 2.31 | 0.43 | 83 | 1010.0 |
| 20260506140830 | 9 | 336 | 8.0 | 19.3 | 0.00 | 2.31 | 0.43 | 81 | 1009.7 |
| 20260506140332 | 9 | 326 | 6.4 | 12.9 | 0.00 | 2.31 | 0.43 | 81 | 1009.4 |
| 20260506135814 | 9 | 323 | 6.4 | 12.9 | 0.00 | 2.31 | 0.43 | 82 | 1009.5 |
| 20260506135317 | 10 | 313 | 4.8 | 12.9 | 0.00 | 2.31 | 0.43 | 84 | 1009.5 |
| 20260506134826 | 10 | 284 | 4.8 | 12.9 | 0.00 | 2.31 | 0.43 | 84 | 1009.6 |
| 20260506134329 | 9 | 278 | 3.2 | 9.7 | 0.00 | 2.31 | 0.43 | 85 | 1009.5 |
| 20260506133832 | 9 | 291 | 3.2 | 12.9 | 0.00 | 2.31 | 0.43 | 84 | 1009.5 |
| 20260506133314 | 9 | 313 | 3.2 | 14.5 | 0.00 | 2.31 | 0.43 | 84 | 1009.5 |
| 20260506132843 | 9 | 291 | 3.2 | 14.5 | 0.00 | 2.31 | 0.43 | 84 | 1009.4 |
| 20260506132325 | 9 | 263 | 3.2 | 9.7 | 0.00 | 2.31 | 0.43 | 84 | 1009.3 |
| 20260506131834 | 9 | 269 | 4.8 | 11.3 | 0.00 | 2.31 | 0.43 | 84 | 1009.3 |
| 20260506131314 | 9 | 298 | 4.8 | 11.3 | 0.00 | 2.31 | 0.43 | 84 | 1009.2 |
| 20260506130817 | 9 | 290 | 4.8 | 9.7 | 0.03 | 2.31 | 0.43 | 84 | 1009.1 |
| 20260506130326 | 9 | 281 | 3.2 | 9.7 | 0.03 | 2.31 | 0.43 | 84 | 1008.9 |
| 20260506125828 | 8 | 273 | 3.2 | 8.0 | 0.03 | 2.31 | 0.43 | 84 | 1009.0 |
| 20260506125331 | 8 | 304 | 1.6 | 8.0 | 0.03 | 2.31 | 0.43 | 84 | 1008.8 |
| 20260506124814 | 8 | 299 | 1.6 | 11.3 | 0.03 | 2.31 | 0.43 | 83 | 1008.7 |
| 20260506124322 | 8 | 281 | 3.2 | 11.3 | 0.03 | 2.31 | 0.43 | 83 | 1008.6 |
| 20260506123825 | 8 | 288 | 3.2 | 8.0 | 0.03 | 2.31 | 0.43 | 82 | 1008.6 |
| 20260506123328 | 8 | 322 | 3.2 | 8.0 | 0.03 | 2.31 | 0.43 | 82 | 1008.7 |
| 20260506122837 | 8 | 296 | 1.6 | 6.4 | 0.03 | 2.31 | 0.43 | 81 | 1008.6 |
| 20260506122320 | 8 | 294 | 3.2 | 8.0 | 0.03 | 2.31 | 0.43 | 80 | 1008.7 |
| 20260506121842 | 8 | 317 | 4.8 | 8.0 | 0.03 | 2.31 | 0.43 | 78 | 1008.5 |
| 20260506121330 | 8 | 322 | 4.8 | 8.0 | 0.03 | 2.31 | 0.43 | 78 | 1008.4 |
| 20260506120833 | 8 | 321 | 3.2 | 8.0 | 0.00 | 2.29 | 0.41 | 78 | 1008.6 |
| 20260506120316 | 8 | 301 | 3.2 | 8.0 | 0.00 | 2.29 | 0.41 | 80 | 1008.8 |
| 20260506115824 | 8 | 312 | 4.8 | 9.7 | 0.00 | 2.29 | 0.41 | 82 | 1008.7 |
| 20260506115326 | 8 | 314 | 4.8 | 9.7 | 0.03 | 2.29 | 0.41 | 82 | 1008.7 |
| 20260506114829 | 8 | 317 | 4.8 | 8.0 | 0.03 | 2.29 | 0.41 | 83 | 1008.5 |
| 20260506114336 | 8 | 311 | 1.6 | 4.8 | 0.03 | 2.29 | 0.41 | 84 | 1008.5 |
| 20260506113819 | 8 | 304 | 1.6 | 8.0 | 0.03 | 2.29 | 0.41 | 85 | 1008.5 |
| 20260506113321 | 8 | 321 | 3.2 | 8.0 | 0.03 | 2.29 | 0.41 | 85 | 1008.3 |
| 20260506112822 | 8 | 323 | 3.2 | 8.0 | 0.03 | 2.29 | 0.41 | 86 | 1008.1 |
| 20260506112330 | 8 | 321 | 3.2 | 8.0 | 0.03 | 2.29 | 0.41 | 87 | 1007.9 |
| 20260506111852 | 7 | 320 | 3.2 | 6.4 | 0.03 | 2.29 | 0.41 | 87 | 1007.8 |
| 20260506111339 | 7 | 319 | 1.6 | 4.8 | 0.03 | 2.29 | 0.41 | 88 | 1007.8 |
| 20260506110821 | 7 | 319 | 3.2 | 6.4 | 0.03 | 2.29 | 0.41 | 88 | 1007.7 |
| 20260506110324 | 7 | 316 | 3.2 | 6.4 | 0.03 | 2.29 | 0.41 | 89 | 1007.8 |
| 20260506105833 | 7 | 315 | 0.0 | 4.8 | 0.05 | 2.29 | 0.41 | 89 | 1007.6 |
| 20260506105316 | 7 | 315 | 3.2 | 6.4 | 0.03 | 2.26 | 0.38 | 89 | 1007.3 |
| 20260506104819 | 7 | 323 | 0.0 | 4.8 | 0.03 | 2.26 | 0.38 | 89 | 1007.0 |
| 20260506104347 | 7 | 321 | 0.0 | 4.8 | 0.03 | 2.26 | 0.38 | 89 | 1007.0 |
| 20260506103828 | 7 | 321 | 1.6 | 6.4 | 0.03 | 2.26 | 0.38 | 90 | 1007.1 |
| 20260506103331 | 7 | 325 | 3.2 | 6.4 | 0.03 | 2.26 | 0.38 | 90 | 1007.2 |
| 20260506102814 | 7 | 326 | 1.6 | 12.9 | 0.03 | 2.26 | 0.38 | 90 | 1007.0 |
| 20260506102344 | 7 | 331 | 3.2 | 12.9 | 0.03 | 2.26 | 0.38 | 90 | 1007.2 |
| 20260506101826 | 7 | 338 | 6.4 | 14.5 | 0.03 | 2.26 | 0.38 | 90 | 1007.5 |
| 20260506101335 | 7 | 328 | 6.4 | 14.5 | 0.05 | 2.26 | 0.38 | 91 | 1007.7 |
| 20260506100817 | 7 | 325 | 6.4 | 12.9 | 0.05 | 2.26 | 0.38 | 91 | 1007.7 |
| 20260506100320 | 7 | 318 | 4.8 | 14.5 | 0.03 | 2.24 | 0.36 | 91 | 1007.6 |
| 20260506095827 | 7 | 326 | 6.4 | 14.5 | 0.03 | 2.24 | 0.36 | 92 | 1007.3 |
| 20260506095329 | 7 | 297 | 3.2 | 11.3 | 0.03 | 2.24 | 0.36 | 92 | 1007.0 |
| 20260506094832 | 7 | 340 | 4.8 | 6.4 | 0.03 | 2.24 | 0.36 | 92 | 1007.0 |
| 20260506094341 | 7 | 326 | 1.6 | 3.2 | 0.03 | 2.24 | 0.36 | 92 | 1007.2 |
| 20260506093844 | 7 | 327 | 0.0 | 3.2 | 0.03 | 2.24 | 0.36 | 92 | 1007.0 |
| 20260506093333 | 7 | 327 | 0.0 | 3.2 | 0.05 | 2.24 | 0.36 | 92 | 1006.9 |
| 20260506092815 | 7 | 327 | 0.0 | 3.2 | 0.05 | 2.24 | 0.36 | 92 | 1007.3 |
| 20260506092318 | 7 | 326 | 1.6 | 3.2 | 0.05 | 2.24 | 0.36 | 92 | 1007.5 |
| 20260506091821 | 7 | 327 | 0.0 | 1.6 | 0.05 | 2.24 | 0.36 | 92 | 1007.6 |
| 20260506091329 | 7 | 327 | 0.0 | 1.6 | 0.03 | 2.21 | 0.33 | 92 | 1007.7 |
| 20260506090859 | 7 | 327 | 0.0 | 1.6 | 0.03 | 2.21 | 0.33 | 92 | 1007.6 |
| 20260506090320 | 7 | 327 | 0.0 | 3.2 | 0.03 | 2.21 | 0.33 | 92 | 1007.6 |
| 20260506085823 | 7 | 327 | 0.0 | 6.4 | 0.05 | 2.21 | 0.33 | 92 | 1007.4 |
| 20260506085326 | 7 | 331 | 3.2 | 6.4 | 0.05 | 2.21 | 0.33 | 92 | 1007.5 |
| 20260506084834 | 7 | 326 | 1.6 | 4.8 | 0.05 | 2.21 | 0.33 | 92 | 1007.4 |
| 20260506084317 | 7 | 325 | 3.2 | 4.8 | 0.05 | 2.21 | 0.33 | 92 | 1007.4 |
| 20260506083820 | 7 | 327 | 1.6 | 6.4 | 0.05 | 2.21 | 0.33 | 92 | 1007.3 |
| 20260506083322 | 7 | 325 | 3.2 | 8.0 | 0.03 | 2.18 | 0.30 | 92 | 1007.1 |
| 20260506082831 | 7 | 309 | 4.8 | 8.0 | 0.05 | 2.18 | 0.30 | 92 | 1007.4 |
| 20260506082314 | 7 | 320 | 3.2 | 8.0 | 0.05 | 2.18 | 0.30 | 92 | 1007.1 |
| 20260506081817 | 7 | 283 | 3.2 | 6.4 | 0.05 | 2.18 | 0.30 | 93 | 1007.2 |
| 20260506081320 | 7 | 323 | 1.6 | 8.0 | 0.05 | 2.18 | 0.30 | 93 | 1007.2 |
| 20260506080829 | 7 | 334 | 4.8 | 9.7 | 0.05 | 2.18 | 0.30 | 93 | 1007.3 |
| 20260506080331 | 7 | 338 | 6.4 | 12.9 | 0.05 | 2.18 | 0.30 | 93 | 1007.5 |
| 20260506073319 | 7 | 319 | 4.8 | 8.0 | 0.08 | 2.16 | 0.28 | 93 | 1007.5 |
| 20260506072822 | 7 | 326 | 1.6 | 8.0 | 0.05 | 2.13 | 0.25 | 93 | 1007.4 |
| 20260506072331 | 7 | 320 | 4.8 | 6.4 | 0.05 | 2.13 | 0.25 | 93 | 1007.2 |
| 20260506071835 | 7 | 318 | 3.2 | 6.4 | 0.05 | 2.13 | 0.25 | 93 | 1007.3 |
| 20260506071316 | 7 | 313 | 3.2 | 6.4 | 0.05 | 2.13 | 0.25 | 93 | 1007.2 |
| 20260506070824 | 7 | 294 | 3.2 | 8.0 | 0.08 | 2.13 | 0.25 | 93 | 1007.2 |
| 20260506070327 | 7 | 318 | 3.2 | 8.0 | 0.08 | 2.13 | 0.25 | 93 | 1007.4 |
| 20260506062326 | 7 | 61 | 0.0 | 0.0 | 0.08 | 2.08 | 0.20 | 93 | 1007.1 |
| 20260506061828 | 7 | 60 | 0.0 | 0.0 | 0.08 | 2.08 | 0.20 | 93 | 1007.3 |
| 20260506061313 | 7 | 61 | 0.0 | 0.0 | 0.10 | 2.08 | 0.20 | 93 | 1007.4 |
| 20260506060822 | 7 | 60 | 0.0 | 0.0 | 0.08 | 2.06 | 0.18 | 93 | 1007.5 |
| 20260506060325 | 7 | 60 | 0.0 | 0.0 | 0.08 | 2.06 | 0.18 | 93 | 1007.5 |
| 20260506051329 | 7 | 61 | 0.0 | 0.0 | 0.08 | 1.98 | 0.10 | 93 | 1007.5 |
| 20260506050838 | 7 | 61 | 0.0 | 0.0 | 0.10 | 1.98 | 0.10 | 93 | 1007.6 |
| 20260506050320 | 7 | 61 | 0.0 | 1.6 | 0.10 | 1.98 | 0.10 | 93 | 1007.7 |
| 20260506044835 | 7 | 61 | 0.0 | 1.6 | 0.10 | 1.96 | 0.08 | 93 | 1007.7 |
| 20260506044339 | 7 | 61 | 0.0 | 3.2 | 0.10 | 1.96 | 0.08 | 93 | 1007.7 |
| 20260506043820 | 7 | 61 | 1.6 | 3.2 | 0.10 | 1.93 | 0.05 | 93 | 1007.6 |
| 20260506043330 | 7 | 60 | 0.0 | 0.0 | 0.13 | 1.93 | 0.05 | 93 | 1007.8 |
| 20260506042832 | 7 | 60 | 0.0 | 0.0 | 0.13 | 1.93 | 0.05 | 93 | 1007.8 |
| 20260506042315 | 7 | 60 | 0.0 | 0.0 | 0.10 | 1.91 | 0.03 | 93 | 1007.9 |
| 20260506041845 | 7 | 61 | 0.0 | 3.2 | 0.13 | 1.91 | 0.03 | 93 | 1008.0 |
| 20260506041327 | 7 | 61 | 0.0 | 3.2 | 0.13 | 1.91 | 0.03 | 93 | 1007.9 |
| 20260506040836 | 7 | 60 | 0.0 | 0.0 | 0.13 | 1.88 | 0.00 | 93 | 1008.1 |
| 20260506040319 | 7 | 60 | 0.0 | 0.0 | 0.13 | 1.88 | 1.88 | 93 | 1008.1 |
| 20260506035821 | 7 | 60 | 0.0 | 0.0 | 0.15 | 1.88 | 1.88 | 93 | 1008.2 |
| 20260506035324 | 7 | 60 | 0.0 | 0.0 | 0.15 | 1.85 | 1.85 | 93 | 1008.2 |
| 20260506034833 | 7 | 60 | 0.0 | 3.2 | 0.18 | 1.85 | 1.85 | 93 | 1008.2 |
| 20260506034316 | 7 | 60 | 0.0 | 1.6 | 0.15 | 1.83 | 1.83 | 93 | 1008.4 |
| 20260506033819 | 7 | 60 | 0.0 | 0.0 | 0.18 | 1.83 | 1.83 | 93 | 1008.6 |
| 20260506033321 | 7 | 60 | 0.0 | 1.6 | 0.18 | 1.80 | 1.80 | 93 | 1008.6 |
| 20260506032829 | 8 | 60 | 0.0 | 1.6 | 0.23 | 1.80 | 1.80 | 93 | 1008.7 |
| 20260506032332 | 8 | 60 | 0.0 | 1.6 | 0.23 | 1.80 | 1.80 | 93 | 1008.5 |
| 20260506031814 | 8 | 60 | 0.0 | 1.6 | 0.20 | 1.78 | 1.78 | 93 | 1008.3 |
| 20260506031317 | 8 | 60 | 0.0 | 1.6 | 0.20 | 1.78 | 1.78 | 93 | 1008.4 |
| 20260506030847 | 8 | 60 | 0.0 | 1.6 | 0.18 | 1.75 | 1.75 | 93 | 1008.4 |
| 20260506030335 | 8 | 60 | 0.0 | 1.6 | 0.18 | 1.73 | 1.73 | 93 | 1008.5 |
| 20260506025814 | 8 | 61 | 0.0 | 3.2 | 0.18 | 1.73 | 1.73 | 93 | 1008.5 |
| 20260506025338 | 8 | 61 | 1.6 | 3.2 | 0.15 | 1.70 | 1.70 | 93 | 1008.7 |
| 20260506024826 | 8 | 62 | 0.0 | 1.6 | 0.13 | 1.68 | 1.68 | 93 | 1008.5 |
| 20260506024329 | 8 | 62 | 0.0 | 1.6 | 0.13 | 1.65 | 1.65 | 93 | 1008.5 |
| 20260506023859 | 8 | 62 | 0.0 | 3.2 | 0.13 | 1.65 | 1.65 | 93 | 1008.5 |
| 20260506023321 | 8 | 62 | 1.6 | 3.2 | 0.08 | 1.60 | 1.60 | 93 | 1008.5 |
| 20260506022823 | 8 | 62 | 1.6 | 3.2 | 0.05 | 1.57 | 1.57 | 93 | 1008.4 |
| 20260506022326 | 8 | 65 | 1.6 | 3.2 | 0.08 | 1.57 | 1.57 | 93 | 1008.2 |
| 20260506021835 | 8 | 66 | 0.0 | 3.2 | 0.08 | 1.57 | 1.57 | 93 | 1008.2 |
| 20260506021317 | 8 | 66 | 0.0 | 0.0 | 0.08 | 1.57 | 1.57 | 93 | 1008.2 |
| 20260506020820 | 8 | 66 | 0.0 | 1.6 | 0.10 | 1.57 | 1.57 | 93 | 1008.1 |
| 20260506020329 | 8 | 66 | 0.0 | 1.6 | 0.08 | 1.55 | 1.55 | 93 | 1008.2 |
| 20260506015832 | 8 | 66 | 0.0 | 1.6 | 0.08 | 1.55 | 1.55 | 93 | 1008.1 |
| 20260506015314 | 8 | 66 | 0.0 | 1.6 | 0.10 | 1.55 | 1.55 | 93 | 1008.0 |
| 20260506014818 | 8 | 66 | 0.0 | 1.6 | 0.08 | 1.52 | 1.52 | 93 | 1008.0 |
| 20260506014326 | 8 | 66 | 0.0 | 1.6 | 0.08 | 1.52 | 1.52 | 93 | 1007.8 |
| 20260506013828 | 8 | 66 | 0.0 | 3.2 | 0.10 | 1.52 | 1.52 | 93 | 1007.9 |
| 20260506013358 | 8 | 66 | 0.0 | 3.2 | 0.10 | 1.52 | 1.52 | 93 | 1007.8 |
| 20260506012819 | 8 | 66 | 0.0 | 1.6 | 0.10 | 1.52 | 1.52 | 93 | 1007.8 |
| 20260506012343 | 8 | 66 | 0.0 | 1.6 | 0.08 | 1.50 | 1.50 | 93 | 1007.7 |
| 20260506011830 | 8 | 66 | 0.0 | 1.6 | 0.10 | 1.50 | 1.50 | 93 | 1007.6 |
| 20260506011333 | 8 | 66 | 0.0 | 0.0 | 0.10 | 1.50 | 1.50 | 93 | 1007.7 |
| 20260506010814 | 8 | 66 | 0.0 | 1.6 | 0.10 | 1.47 | 1.47 | 93 | 1007.6 |
| 20260506010323 | 8 | 66 | 0.0 | 3.2 | 0.10 | 1.47 | 1.47 | 93 | 1007.5 |
| 20260506005825 | 8 | 66 | 0.0 | 1.6 | 0.10 | 1.47 | 1.47 | 93 | 1007.5 |
| 20260506005327 | 8 | 66 | 0.0 | 1.6 | 0.10 | 1.45 | 1.45 | 93 | 1007.5 |
| 20260506004835 | 8 | 66 | 0.0 | 0.0 | 0.10 | 1.45 | 1.45 | 93 | 1007.5 |
| 20260506004339 | 8 | 66 | 0.0 | 1.6 | 0.13 | 1.45 | 1.45 | 93 | 1007.6 |
| 20260506003820 | 8 | 66 | 0.0 | 6.4 | 0.10 | 1.42 | 1.42 | 93 | 1007.7 |
| 20260506003350 | 8 | 66 | 1.6 | 6.4 | 0.10 | 1.42 | 1.42 | 93 | 1007.7 |
| 20260506002831 | 8 | 66 | 0.0 | 4.8 | 0.13 | 1.42 | 1.42 | 93 | 1007.7 |
| 20260506002314 | 8 | 66 | 0.0 | 4.8 | 0.10 | 1.40 | 1.40 | 93 | 1007.6 |
| 20260506001822 | 8 | 63 | 1.6 | 6.4 | 0.13 | 1.40 | 1.40 | 93 | 1007.5 |
| 20260506001325 | 8 | 63 | 1.6 | 6.4 | 0.13 | 1.40 | 1.40 | 93 | 1007.4 |
| 20260506000834 | 8 | 71 | 3.2 | 6.4 | 0.13 | 1.37 | 1.37 | 93 | 1007.4 |
| 20260506000316 | 8 | 77 | 1.6 | 9.7 | 0.13 | 1.37 | 1.37 | 93 | 1007.4 |
| 20260505235819 | 8 | 76 | 3.2 | 9.7 | 0.15 | 1.37 | 1.37 | 92 | 1007.3 |
| 20260505235349 | 8 | 88 | 3.2 | 9.7 | 0.15 | 1.35 | 1.35 | 93 | 1007.2 |
| 20260505234852 | 9 | 106 | 1.6 | 4.8 | 0.15 | 1.35 | 1.35 | 93 | 1007.1 |
| 20260505234313 | 8 | 75 | 0.0 | 8.0 | 0.15 | 1.32 | 1.32 | 92 | 1007.2 |
| 20260505233823 | 8 | 75 | 1.6 | 8.0 | 0.15 | 1.32 | 1.32 | 92 | 1007.2 |
| 20260505233325 | 9 | 69 | 1.6 | 6.4 | 0.15 | 1.30 | 1.30 | 92 | 1007.2 |
| 20260505232828 | 9 | 82 | 3.2 | 6.4 | 0.18 | 1.30 | 1.30 | 93 | 1007.4 |
| 20260505232337 | 9 | 68 | 1.6 | 6.4 | 0.18 | 1.30 | 1.30 | 93 | 1007.2 |
| 20260505231817 | 9 | 63 | 3.2 | 6.4 | 0.18 | 1.27 | 1.27 | 93 | 1007.3 |
| 20260505231319 | 9 | 63 | 3.2 | 6.4 | 0.18 | 1.27 | 1.27 | 92 | 1007.5 |
| 20260505230849 | 9 | 65 | 1.6 | 3.2 | 0.18 | 1.24 | 1.24 | 92 | 1007.9 |
| 20260505230358 | 9 | 65 | 0.0 | 6.4 | 0.20 | 1.24 | 1.24 | 92 | 1007.9 |
| 20260505225840 | 9 | 65 | 0.0 | 6.4 | 0.18 | 1.22 | 1.22 | 92 | 1007.7 |
| 20260505225322 | 9 | 61 | 0.0 | 6.4 | 0.18 | 1.19 | 1.19 | 92 | 1007.6 |
| 20260505224831 | 9 | 61 | 3.2 | 6.4 | 0.18 | 1.19 | 1.19 | 92 | 1007.6 |
| 20260505224313 | 9 | 36 | 1.6 | 8.0 | 0.18 | 1.17 | 1.17 | 92 | 1007.8 |
| 20260505223816 | 9 | 86 | 3.2 | 6.4 | 0.18 | 1.17 | 1.17 | 92 | 1007.5 |
| 20260505223319 | 9 | 313 | 3.2 | 6.4 | 0.18 | 1.14 | 1.14 | 92 | 1008.2 |
| 20260505222827 | 9 | 48 | 1.6 | 6.4 | 0.15 | 1.12 | 1.12 | 92 | 1007.3 |
| 20260505222329 | 9 | 51 | 1.6 | 8.0 | 0.18 | 1.12 | 1.12 | 92 | 1007.3 |
| 20260505221838 | 9 | 333 | 3.2 | 8.0 | 0.18 | 1.09 | 1.09 | 92 | 1007.4 |
| 20260505221342 | 9 | 317 | 3.2 | 6.4 | 0.18 | 1.09 | 1.09 | 92 | 1007.4 |
| 20260505220824 | 10 | 315 | 1.6 | 4.8 | 0.18 | 1.07 | 1.07 | 92 | 1007.6 |
| 20260505220333 | 9 | 312 | 0.0 | 4.8 | 0.18 | 1.04 | 1.04 | 92 | 1007.5 |
| 20260505215814 | 9 | 313 | 1.6 | 4.8 | 0.18 | 1.04 | 1.04 | 92 | 1007.3 |
| 20260505215317 | 9 | 315 | 1.6 | 4.8 | 0.18 | 1.02 | 1.02 | 92 | 1007.1 |
| 20260505214827 | 9 | 313 | 1.6 | 4.8 | 0.20 | 1.02 | 1.02 | 92 | 1007.1 |
| 20260505214328 | 9 | 319 | 1.6 | 4.8 | 0.20 | 0.99 | 0.99 | 92 | 1006.8 |
| 20260505213831 | 9 | 318 | 1.6 | 4.8 | 0.23 | 0.99 | 0.99 | 92 | 1007.1 |
| 20260505213314 | 9 | 321 | 3.2 | 8.0 | 0.20 | 0.97 | 0.97 | 92 | 1006.9 |
| 20260505212823 | 9 | 328 | 3.2 | 9.7 | 0.20 | 0.94 | 0.94 | 92 | 1006.9 |
| 20260505212326 | 9 | 325 | 3.2 | 9.7 | 0.23 | 0.94 | 0.94 | 92 | 1006.9 |
| 20260505211828 | 9 | 318 | 3.2 | 9.7 | 0.23 | 0.91 | 0.91 | 92 | 1006.9 |
| 20260505211337 | 9 | 321 | 3.2 | 9.7 | 0.23 | 0.91 | 0.91 | 92 | 1006.8 |
| 20260505210841 | 9 | 321 | 4.8 | 9.7 | 0.20 | 0.89 | 0.89 | 91 | 1006.7 |
| 20260505210323 | 10 | 333 | 4.8 | 9.7 | 0.20 | 0.86 | 0.86 | 91 | 1007.0 |
| 20260505205832 | 10 | 331 | 4.8 | 9.7 | 0.23 | 0.86 | 0.86 | 91 | 1006.8 |
| 20260505205335 | 10 | 325 | 4.8 | 6.4 | 0.23 | 0.84 | 0.84 | 91 | 1006.9 |
| 20260505204824 | 10 | 323 | 3.2 | 8.0 | 0.25 | 0.81 | 0.81 | 92 | 1006.9 |
| 20260505204326 | 10 | 323 | 3.2 | 8.0 | 0.25 | 0.79 | 0.79 | 91 | 1007.0 |
| 20260505203829 | 10 | 312 | 4.8 | 6.4 | 0.28 | 0.76 | 0.76 | 91 | 1006.9 |
| 20260505203339 | 10 | 325 | 4.8 | 6.4 | 0.33 | 0.74 | 0.74 | 91 | 1007.0 |
| 20260505202821 | 11 | 327 | 3.2 | 6.4 | 0.41 | 0.74 | 0.74 | 91 | 1007.0 |
| 20260505202323 | 11 | 317 | 1.6 | 9.7 | 0.41 | 0.71 | 0.71 | 91 | 1007.0 |
| 20260505201832 | 11 | 311 | 4.8 | 9.7 | 0.43 | 0.69 | 0.69 | 90 | 1006.8 |
| 20260505201313 | 11 | 323 | 6.4 | 9.7 | 0.51 | 0.69 | 0.69 | 90 | 1006.8 |
| 20260505200816 | 12 | 329 | 3.2 | 9.7 | 0.53 | 0.66 | 0.66 | 91 | 1006.9 |
| 20260505200319 | 12 | 329 | 4.8 | 8.0 | 0.56 | 0.66 | 0.66 | 91 | 1006.9 |
| 20260505195331 | 12 | 252 | 1.6 | 3.2 | 0.53 | 0.61 | 0.61 | 91 | 1006.9 |
| 20260505194814 | 12 | 252 | 1.6 | 3.2 | 0.53 | 0.56 | 0.56 | 91 | 1006.8 |
| 20260505194343 | 12 | 252 | 1.6 | 3.2 | 0.48 | 0.51 | 0.51 | 91 | 1006.9 |
| 20260505193826 | 12 | 251 | 0.0 | 3.2 | 0.46 | 0.46 | 0.46 | 90 | 1006.8 |
| 20260505193334 | 12 | 251 | 1.6 | 3.2 | 0.41 | 0.41 | 0.41 | 90 | 1006.9 |
| 20260505192838 | 12 | 251 | 0.0 | 3.2 | 0.33 | 0.33 | 0.33 | 90 | 1006.9 |
| 20260505192320 | 12 | 250 | 0.0 | 4.8 | 0.28 | 0.28 | 0.28 | 90 | 1006.9 |
| 20260505191828 | 12 | 250 | 1.6 | 4.8 | 0.23 | 0.23 | 0.23 | 89 | 1006.9 |
| 20260505191330 | 12 | 250 | 1.6 | 4.8 | 0.18 | 0.18 | 0.18 | 89 | 1006.9 |
| 20260505190813 | 12 | 251 | 0.0 | 4.8 | 0.13 | 0.13 | 0.13 | 89 | 1006.9 |
| 20260505190316 | 12 | 251 | 1.6 | 4.8 | 0.10 | 0.10 | 0.10 | 88 | 1006.9 |
| 20260505185820 | 12 | 281 | 1.6 | 4.8 | 0.08 | 0.08 | 0.08 | 88 | 1006.9 |
| 20260505185323 | 12 | 282 | 1.6 | 4.8 | 0.05 | 0.05 | 0.05 | 87 | 1006.9 |
| 20260505184832 | 12 | 281 | 1.6 | 4.8 | 0.03 | 0.03 | 0.03 | 86 | 1007.0 |
| 20260505184346 | 13 | 282 | 3.2 | 4.8 | 0.00 | 0.00 | 0.00 | 86 | 1007.0 |
| 20260505183835 | 13 | 290 | 1.6 | 11.3 | 0.00 | 0.00 | 0.00 | 85 | 1007.0 |
| 20260505183337 | 13 | 291 | 3.2 | 11.3 | 0.00 | 0.00 | 0.00 | 84 | 1007.0 |
| 20260505182824 | 13 | 294 | 1.6 | 11.3 | 0.00 | 0.00 | 0.00 | 83 | 1006.9 |
| 20260505182327 | 13 | 292 | 1.6 | 9.7 | 0.00 | 0.00 | 0.00 | 82 | 1007.0 |
| 20260505181830 | 14 | 275 | 4.8 | 12.9 | 0.00 | 0.00 | 0.00 | 81 | 1006.9 |
| 20260505181337 | 15 | 280 | 3.2 | 12.9 | 0.00 | 0.00 | 0.00 | 80 | 1006.9 |
| 20260505180819 | 15 | 289 | 4.8 | 16.1 | 0.00 | 0.00 | 0.00 | 79 | 1006.9 |
| 20260505180349 | 15 | 223 | 6.4 | 17.7 | 0.00 | 0.00 | 0.00 | 78 | 1006.9 |
| 20260505175830 | 15 | 248 | 8.0 | 19.3 | 0.00 | 0.00 | 0.00 | 77 | 1006.8 |
| 20260505175334 | 16 | 248 | 9.7 | 14.5 | 0.00 | 0.00 | 0.00 | 76 | 1006.7 |
| 20260505174822 | 16 | 274 | 6.4 | 12.9 | 0.00 | 0.00 | 0.00 | 76 | 1006.6 |
| 20260505174325 | 16 | 249 | 6.4 | 12.9 | 0.00 | 0.00 | 0.00 | 76 | 1006.6 |
| 20260505173828 | 16 | 267 | 4.8 | 16.1 | 0.00 | 0.00 | 0.00 | 75 | 1006.5 |
| 20260505173337 | 16 | 242 | 8.0 | 19.3 | 0.00 | 0.00 | 0.00 | 75 | 1006.5 |
| 20260505172819 | 16 | 272 | 6.4 | 12.9 | 0.00 | 0.00 | 0.00 | 76 | 1006.5 |
| 20260505172342 | 16 | 243 | 4.8 | 14.5 | 0.00 | 0.00 | 0.00 | 76 | 1006.5 |
| 20260505171829 | 16 | 224 | 8.0 | 14.5 | 0.00 | 0.00 | 0.00 | 76 | 1006.4 |
| 20260505171332 | 16 | 220 | 8.0 | 14.5 | 0.00 | 0.00 | 0.00 | 77 | 1006.3 |
| 20260505170842 | 16 | 254 | 8.0 | 19.3 | 0.00 | 0.00 | 0.00 | 77 | 1006.4 |
| 20260505170323 | 15 | 229 | 8.0 | 19.3 | 0.00 | 0.00 | 0.00 | 78 | 1006.4 |
| 20260505165823 | 15 | 225 | 6.4 | 14.5 | 0.00 | 0.00 | 0.00 | 79 | 1006.5 |
| 20260505165332 | 15 | 263 | 8.0 | 14.5 | 0.00 | 0.00 | 0.00 | 79 | 1006.5 |
| 20260505164814 | 15 | 271 | 6.4 | 12.9 | 0.00 | 0.00 | 0.00 | 80 | 1006.4 |
| 20260505164317 | 15 | 269 | 6.4 | 12.9 | 0.00 | 0.00 | 0.00 | 80 | 1006.4 |
| 20260505163820 | 15 | 253 | 4.8 | 14.5 | 0.00 | 0.00 | 0.00 | 80 | 1006.4 |
| 20260505163350 | 15 | 258 | 8.0 | 14.5 | 0.00 | 0.00 | 0.00 | 81 | 1006.4 |
| 20260505162831 | 15 | 213 | 4.8 | 14.5 | 0.00 | 0.00 | 0.00 | 81 | 1006.4 |
| 20260505162321 | 15 | 252 | 3.2 | 12.9 | 0.00 | 0.00 | 0.00 | 81 | 1006.3 |
| 20260505161845 | 15 | 261 | 6.4 | 12.9 | 0.00 | 0.00 | 0.00 | 81 | 1006.3 |
| 20260505161332 | 15 | 223 | 3.2 | 8.0 | 0.00 | 0.00 | 0.00 | 81 | 1006.3 |
| 20260505160815 | 15 | 264 | 4.8 | 12.9 | 0.00 | 0.00 | 0.00 | 80 | 1006.3 |
| 20260505160317 | 15 | 259 | 3.2 | 12.9 | 0.00 | 0.00 | 0.00 | 79 | 1006.3 |
| 20260505153324 | 17 | 248 | 6.4 | 12.9 | 0.00 | 0.00 | 0.00 | 72 | 1005.8 |
| 20260505152826 | 17 | 235 | 4.8 | 14.5 | 0.00 | 0.00 | 0.00 | 72 | 1005.6 |
| 20260505152329 | 17 | 311 | 4.8 | 14.5 | 0.00 | 0.00 | 0.00 | 70 | 1005.6 |
| 20260505151838 | 17 | 303 | 4.8 | 12.9 | 0.00 | 0.00 | 0.00 | 69 | 1005.3 |
| 20260505151321 | 17 | 255 | 6.4 | 14.5 | 0.00 | 0.00 | 0.00 | 67 | 1005.1 |
| 20260505150824 | 17 | 259 | 8.0 | 14.5 | 0.00 | 0.00 | 0.00 | 67 | 1004.8 |
| 20260505150333 | 17 | 242 | 6.4 | 12.9 | 0.00 | 0.00 | 0.00 | 67 | 1004.7 |